Location: Bieg
(49.3499°N, 10.3835°E)
Time: 23:58:47
(UTC+00:00)

ATLAS 2AS CENTAUR R/B - Pass Details

Date: 23 May 2024
Orbit: 1017 x 1194 km, 63.7° (Epoch: 12 June)

Event Time Altitude Azimuth Distance (km) Brightness Sun altitude
Rises 01:31:03 0° 317° (NW) 3,921 5.8 -13.8°
Reaches altitude 10° 01:33:49 10° 321° (NW) 2,935 5.2 -13.5°
Maximum altitude 01:40:40 61° 41° (NE) 1,183 3.3 -12.9°
Drops below altitude 10° 01:47:15 10° 122° (ESE) 2,821 5.0 -12.3°
Sets 01:49:51 0° 126° (SE) 3,759 5.6 -12.0°
